When you browse on this site, cookies collect data to enhance your experience and personalize the content and advertising you see.
Visit our Privacy Policy to learn more. By continuing to use the site, you agree to this use of cookies and data.

Hourly Weather Meknes

Today, 5 August, Wednesday

Time Temperature Precipitation Wind Pressure Humidity
00:00 +22°C° 0 mm 0 mps 715 mmHg 67%
01:00 +22°C° 0 mm 0 mps 714 mmHg 68%
02:00 +21°C° 0 mm 0 mps 714 mmHg 69%
03:00 +21°C° 0 mm 0 mps 713 mmHg 70%
04:00 +23°C° 0 mm 1 mps 713 mmHg 69%
05:00 +23°C° 0 mm 1 mps 713 mmHg 69%
06:00 +23°C° 0 mm 1 mps 714 mmHg 68%
07:00 +26°C° 0 mm 1 mps 714 mmHg 59%
08:00 +28°C° 0 mm 1 mps 714 mmHg 50%
09:00 +31°C° 0 mm 2 mps 714 mmHg 40%
10:00 +34°C° 0 mm 2 mps 714 mmHg 34%
11:00 +36°C° 0 mm 2 mps 714 mmHg 28%
12:00 +38°C° 0 mm 3 mps 715 mmHg 22%
13:00 +40°C° 0 mm 3 mps 714 mmHg 20%
14:00 +42°C° 0 mm 3 mps 714 mmHg 18%
15:00 +43°C° 0 mm 3 mps 714 mmHg 16%
16:00 +41°C° 0 mm 4 mps 714 mmHg 22%
17:00 +38°C° 0 mm 4 mps 714 mmHg 29%
18:00 +36°C° 0 mm 5 mps 714 mmHg 35%
19:00 +33°C° 0 mm 4 mps 714 mmHg 43%
20:00 +30°C° 0 mm 2 mps 714 mmHg 51%
21:00 +28°C° 0 mm 1 mps 714 mmHg 59%
22:00 +27°C° 0 mm 1 mps 714 mmHg 60%
23:00 +27°C° 0 mm 1 mps 715 mmHg 61%

Tomorrow, 6 August, Thursday

Time Temperature Precipitation Wind Pressure Humidity
00:00 +24°C° 0 mm 0 mps 715 mmHg 62%
01:00 +24°C° 0 mm 0 mps 714 mmHg 64%
02:00 +25°C° 0 mm 1 mps 714 mmHg 66%
03:00 +25°C° 0 mm 1 mps 714 mmHg 68%
04:00 +25°C° 0 mm 1 mps 714 mmHg 68%
05:00 +24°C° 0 mm 1 mps 714 mmHg 68%
06:00 +24°C° 0 mm 1 mps 714 mmHg 69%
07:00 +26°C° 0 mm 1 mps 714 mmHg 61%
08:00 +28°C° 0 mm 1 mps 715 mmHg 54%
09:00 +31°C° 0 mm 2 mps 715 mmHg 46%
10:00 +34°C° 0 mm 2 mps 715 mmHg 41%
11:00 +36°C° 0 mm 2 mps 715 mmHg 35%
12:00 +38°C° 0 mm 3 mps 715 mmHg 30%
13:00 +39°C° 0 mm 3 mps 715 mmHg 27%
14:00 +40°C° 0 mm 3 mps 715 mmHg 25%
15:00 +42°C° 0 mm 4 mps 715 mmHg 22%
16:00 +40°C° 0.2 mm 4 mps 715 mmHg 24%
17:00 +38°C° 0.2 mm 3 mps 716 mmHg 26%
18:00 +36°C° 0.2 mm 3 mps 716 mmHg 29%
19:00 +33°C° 0 mm 3 mps 716 mmHg 40%
20:00 +29°C° 0 mm 3 mps 716 mmHg 51%
21:00 +27°C° 0 mm 3 mps 716 mmHg 63%
22:00 +26°C° 0 mm 2 mps 717 mmHg 67%
23:00 +25°C° 0 mm 2 mps 717 mmHg 72%

Day after tomorrow, 7 August, Friday

Time Temperature Precipitation Wind Pressure Humidity
00:00 +24°C° 0 mm 2 mps 717 mmHg 76%
01:00 +24°C° 0 mm 2 mps 717 mmHg 78%
02:00 +23°C° 0 mm 1 mps 716 mmHg 80%
03:00 +23°C° 0 mm 1 mps 716 mmHg 82%
04:00 +22°C° 0 mm 1 mps 716 mmHg 85%
05:00 +22°C° 0 mm 1 mps 717 mmHg 88%
06:00 +19°C° 0 mm 0 mps 717 mmHg 90%
07:00 +23°C° 0 mm 1 mps 717 mmHg 82%
08:00 +24°C° 0 mm 1 mps 718 mmHg 74%
09:00 +26°C° 0 mm 1 mps 718 mmHg 67%
10:00 +28°C° 0 mm 2 mps 718 mmHg 58%
11:00 +30°C° 0 mm 3 mps 718 mmHg 50%
12:00 +34°C° 0 mm 3 mps 718 mmHg 42%
13:00 +35°C° 0 mm 3 mps 718 mmHg 39%
14:00 +36°C° 0 mm 4 mps 718 mmHg 36%
15:00 +37°C° 0 mm 4 mps 718 mmHg 32%
16:00 +35°C° 0 mm 4 mps 718 mmHg 38%
17:00 +34°C° 0 mm 4 mps 718 mmHg 43%
18:00 +32°C° 0 mm 4 mps 718 mmHg 49%
19:00 +29°C° 0 mm 3 mps 718 mmHg 56%
20:00 +27°C° 0 mm 2 mps 719 mmHg 62%
21:00 +25°C° 0 mm 1 mps 719 mmHg 69%
22:00 +25°C° 0 mm 1 mps 719 mmHg 71%
23:00 +24°C° 0 mm 1 mps 719 mmHg 74%

8 August, Saturday

Time Temperature Precipitation Wind Pressure Humidity
00:00 +22°C° 0 mm 0 mps 719 mmHg 77%
01:00 +21°C° 0 mm 0 mps 718 mmHg 77%
02:00 +21°C° 0 mm 0 mps 718 mmHg 78%
03:00 +21°C° 0 mm 0 mps 718 mmHg 78%
04:00 +23°C° 0 mm 1 mps 718 mmHg 80%
05:00 +23°C° 0 mm 1 mps 718 mmHg 81%
06:00 +22°C° 0 mm 1 mps 718 mmHg 82%
07:00 +24°C° 0 mm 1 mps 718 mmHg 74%
08:00 +26°C° 0 mm 1 mps 718 mmHg 65%
09:00 +28°C° 0 mm 2 mps 719 mmHg 56%
10:00 +31°C° 0 mm 2 mps 719 mmHg 49%
11:00 +34°C° 0 mm 2 mps 719 mmHg 43%
12:00 +36°C° 0 mm 3 mps 719 mmHg 36%
13:00 +37°C° 0 mm 3 mps 719 mmHg 33%
14:00 +38°C° 0 mm 4 mps 719 mmHg 30%
15:00 +41°C° 0 mm 4 mps 718 mmHg 27%
16:00 +38°C° 0 mm 4 mps 718 mmHg 32%
17:00 +36°C° 0 mm 5 mps 719 mmHg 36%
18:00 +35°C° 0 mm 5 mps 719 mmHg 41%
19:00 +31°C° 0 mm 3 mps 719 mmHg 48%
20:00 +29°C° 0 mm 2 mps 719 mmHg 55%
21:00 +27°C° 0 mm 1 mps 719 mmHg 62%
22:00 +26°C° 0 mm 1 mps 719 mmHg 64%
23:00 +25°C° 0 mm 1 mps 718 mmHg 67%

9 August, Sunday

Time Temperature Precipitation Wind Pressure Humidity
00:00 +25°C° 0 mm 1 mps 718 mmHg 69%
01:00 +24°C° 0 mm 1 mps 718 mmHg 72%
02:00 +22°C° 0 mm 0 mps 717 mmHg 74%
03:00 +21°C° 0 mm 0 mps 717 mmHg 77%
04:00 +21°C° 0 mm 0 mps 717 mmHg 77%
05:00 +21°C° 0 mm 0 mps 717 mmHg 78%
06:00 +21°C° 0 mm 0 mps 717 mmHg 78%
07:00 +23°C° 0 mm 0 mps 717 mmHg 68%
08:00 +28°C° 0 mm 1 mps 717 mmHg 58%
09:00 +30°C° 0 mm 1 mps 718 mmHg 49%
10:00 +32°C° 0 mm 2 mps 718 mmHg 43%
11:00 +36°C° 0 mm 2 mps 718 mmHg 37%
12:00 +38°C° 0 mm 3 mps 718 mmHg 31%
13:00 +39°C° 0 mm 3 mps 717 mmHg 29%
14:00 +41°C° 0 mm 4 mps 717 mmHg 26%
15:00 +42°C° 0 mm 4 mps 716 mmHg 24%
16:00 +40°C° 0 mm 4 mps 716 mmHg 27%
17:00 +38°C° 0 mm 4 mps 716 mmHg 29%
18:00 +37°C° 0 mm 4 mps 716 mmHg 32%
19:00 +34°C° 0 mm 3 mps 716 mmHg 39%
20:00 +30°C° 0 mm 2 mps 716 mmHg 46%
21:00 +27°C° 0 mm 1 mps 716 mmHg 54%
22:00 +26°C° 0 mm 1 mps 716 mmHg 57%
23:00 +26°C° 0 mm 1 mps 716 mmHg 60%

10 August, Monday

Time Temperature Precipitation Wind Pressure Humidity
00:00 +25°C° 0 mm 1 mps 716 mmHg 63%
01:00 +25°C° 0 mm 1 mps 715 mmHg 64%
02:00 +22°C° 0 mm 0 mps 715 mmHg 65%
03:00 +22°C° 0 mm 0 mps 715 mmHg 66%
04:00 +22°C° 0 mm 0 mps 714 mmHg 67%
05:00 +21°C° 0 mm 0 mps 714 mmHg 67%
06:00 +21°C° 0 mm 0 mps 714 mmHg 68%
07:00 +25°C° 0 mm 1 mps 715 mmHg 61%
08:00 +27°C° 0 mm 1 mps 715 mmHg 54%
09:00 +29°C° 0 mm 2 mps 715 mmHg 46%
10:00 +31°C° 0 mm 2 mps 715 mmHg 42%
11:00 +34°C° 0 mm 3 mps 715 mmHg 37%
12:00 +36°C° 0 mm 3 mps 716 mmHg 33%
13:00 +37°C° 0 mm 4 mps 715 mmHg 30%
14:00 +38°C° 0 mm 4 mps 715 mmHg 28%
15:00 +41°C° 0 mm 5 mps 715 mmHg 26%
16:00 +37°C° 0 mm 5 mps 715 mmHg 31%
17:00 +35°C° 0 mm 5 mps 715 mmHg 36%
18:00 +32°C° 0 mm 5 mps 715 mmHg 42%
19:00 +29°C° 0.1 mm 4 mps 716 mmHg 49%
20:00 +27°C° 0.1 mm 3 mps 716 mmHg 56%
21:00 +25°C° 0.1 mm 2 mps 716 mmHg 63%
22:00 +25°C° 0.1 mm 2 mps 716 mmHg 67%
23:00 +24°C° 0.1 mm 1 mps 716 mmHg 70%
Show more